Regional Weather Roundup
Issued by NWS

Home | Current Version | Previous Version | Text Only | Print | Product List | Glossary On
Versions: 1 2 3 4 5 6 7 8 9 10 11 12 13 14 15 16 17 18 19 20 21 22 23 24 25 26 27 28 29 30 31 32 33 34 35 36 37 38 39 40 41 42 43 44 45 46 47 48 49 50
000
ASUS43 KLMK 311402
RWRKY
KENTUCKY REGIONAL WEATHER ROUNDUP
NATIONAL WEATHER SERVICE LOUISVILLE KY
1000 AM EDT THU JUL 31 2014

NOTE "FAIR" INDICATES FEW OR NO CLOUDS BELOW 12,000 FEET
WITH NO SIGNIFICANT WEATHER AND/OR OBSTRUCTIONS TO VISIBILITY.

KYZ001>023-026-027-061>063-070>075-311500-
WESTERN AND SOUTH CENTRAL KENTUCKY

CITY           SKY/WX    TMP DP  RH WIND       PRES   REMARKS
PADUCAH        MOSUNNY   75  63  66 CALM      30.11R
HENDERSON      SUNNY     73  61  64 CALM      30.10S
OWENSBORO      SUNNY     72  61  68 CALM      30.12R
HOPKINSVILLE   SUNNY     74  59  59 E6        30.12R
BOWLING GREEN  SUNNY     74  60  61 NE3       30.12S
GLASGOW        SUNNY     72  61  69 N5        30.13S
$$

KYZ024-025-028>034-038-045-046-053-311500-
NORTH CENTRAL KENTUCKY

CITY           SKY/WX    TMP DP  RH WIND       PRES   REMARKS
LOUISVILLE/SDF SUNNY     75  62  64 CALM      30.10S
LOUISVILLE/LOU SUNNY     74  63  68 CALM      30.11R
FORT KNOX      SUNNY     71  65  81 CALM      30.11R
$$

KYZ035>037-039>044-047>052-055>060-089>105-311500-
NORTHEAST KENTUCKY

CITY           SKY/WX    TMP DP  RH WIND       PRES   REMARKS
LEXINGTON      SUNNY     73  62  68 CALM      30.13R
COVINGTON      NOT AVBL
FRANKFORT      SUNNY     73  62  68 CALM      30.11S
$$

KYZ054-064>069-076>088-106>120-311500-
SOUTHEAST KENTUCKY

CITY           SKY/WX    TMP DP  RH WIND       PRES   REMARKS
JACKSON        SUNNY     67  61  81 CALM      30.15S
LONDON         MOSUNNY   69  61  75 CALM      30.14S
SOMERSET       SUNNY     64  64 100 CALM      30.15S
MIDDLESBORO    CLOUDY    60  59  97 CALM      30.16S
MONTICELLO     PTSUNNY   71  62  73 CALM      30.15S
$$




USA.gov is the U.S. government's official web portal to all federal, state and local government web resources and services.